User: anonymous   Login
Location: Byszew
(52.1813°N, 19.2693°E)
Time: 17:15:32
(UTC+00:00)
Language:

Cosmos 962 Rocket - Orbit

View from above orbital plane
View from above orbital plane
View from above satellite
View from above satellite

Ground track
Ground track

The orbit data is extracted from the following two-line orbital elements,

1 10461U 77107B   21127.88001144  .00000028  00000-0  12073-4 0  9990
2 10461  82.9526  38.6755 0034259 130.7706 299.7687 13.76831596185996
Epoch (UTC): 07 May 2021 21:07:12
Eccentricity: 0.0034259
inclination: 82.9526°
perigee height: 950 km
apogee height: 1000 km
right ascension of ascending node: 38.6755°
argument of perigee: 130.7706°
revolutions per day: 13.76831596
mean anomaly at epoch: 299.7687°
orbit number at epoch: 18599

The dashed part of the orbit path shows where the satellite is in the earth's shadow,  

DLR